Weather History for Joplin, MO

Change the Weather History Date:

Thursday, January 10, 2013

  Actual Average Record
Temperature  
Mean Temperature 50 °F 34 °F  
Max Temperature 55 °F 44 °F 69 °F (1990)
Min Temperature 44 °F 25 °F -10 °F (1982)
Degree Days  
Heating Degree Days 16 30  
Month to date heating degree days 300  
Since 1 July heating degree days 1917  
Cooling Degree Days 0 0  
Month to date cooling degree days 0  
Year to date cooling degree days 0  
Moisture  
Dew Point 46 °F    
Average Humidity 87    
Maximum Humidity 100    
Minimum Humidity 52    
Precipitation  
Precipitation 0.11 in 0.07 in 1.04 in (1949)
Month to date precipitation 0.70  
Year to date precipitation 0.70  
Sea Level Pressure  
Sea Level Pressure 29.95 in    
Wind  
Wind Speed 13 mph (SE)    
Max Wind Speed 18 mph    
Max Gust Speed 28 mph    
Visibility 9 miles    
Events Rain    
T = Trace of Precipitation, MM = Missing Value Source: NWS Daily Summary

Daily Weather History Graph

Daily Weather History Graph

Search for Another Location

Airport:

Trip Planner

Search our weather history database for the weather conditions in past years. The results will help you decide how hot, cold, wet, or windy it might be!

Date:

Astronomy

Jan. 10, 2013 Rise Set
Actual Time 7:31 AM CST 5:19 PM CST
Civil Twilight 7:03 AM CST 5:48 PM CST
Nautical Twilight 6:30 AM CST 6:20 PM CST
Astronomical Twilight 5:59 AM CST 6:52 PM CST
Moon 6:12 AM CST (1/10) 4:28 PM CST (1/10)
Length of Visible Light 10h 45m
Length of Day
9h 48m
Waning Crescent, 2% of the Moon is Illuminated
Jan 10
Waning Crescent
Jan 11
New
Jan 18
First Quarter
Jan 26
Full
Feb 3
Last Quarter

Hourly Weather History & Observations

Time (CST) Temp. Windchill Dew Point Humidity Pressure Visibility Wind Dir Wind Speed Gust Speed Precip Events Conditions
12:53 AM 50.0 °F - 33.1 °F 52% 30.22 in 10.0 mi East 13.8 mph 23.0 mph 0.00 in Rain Light Rain
1:53 AM 48.0 °F - 35.1 °F 61% 30.19 in 10.0 mi East 18.4 mph 24.2 mph 0.00 in   Overcast
2:53 AM 46.9 °F - 37.0 °F 68% 30.19 in 10.0 mi East 11.5 mph - 0.00 in   Overcast
3:49 AM 46.4 °F 40.1 °F 37.4 °F 71% 30.16 in 10.0 mi East 15.0 mph - N/A   Overcast
3:53 AM 46.4 °F 39.5 °F 37.4 °F 71% 30.15 in 10.0 mi East 17.3 mph 23.0 mph N/A   Overcast
4:10 AM 46.4 °F 40.4 °F 39.2 °F 76% 30.13 in 10.0 mi East 13.8 mph 25.3 mph N/A   Overcast
4:44 AM 46.4 °F 39.5 °F 39.2 °F 76% 30.11 in 10.0 mi East 17.3 mph 26.5 mph N/A   Overcast
4:53 AM 45.0 °F 38.5 °F 39.0 °F 80% 30.11 in 10.0 mi East 13.8 mph 26.5 mph N/A   Overcast
5:26 AM 44.6 °F 38.4 °F 39.2 °F 81% 30.10 in 10.0 mi ESE 12.7 mph 27.6 mph N/A   Overcast
5:53 AM 44.6 °F 37.8 °F 39.2 °F 81% 30.09 in 10.0 mi ENE 15.0 mph 25.3 mph N/A Rain Light Rain
6:53 AM 45.0 °F 38.2 °F 41.0 °F 86% 30.07 in 10.0 mi East 15.0 mph 27.6 mph 0.00 in   Overcast
7:53 AM 46.0 °F 39.6 °F 42.1 °F 86% 30.05 in 10.0 mi ESE 15.0 mph 19.6 mph N/A   Overcast
8:53 AM 46.0 °F 39.9 °F 43.0 °F 89% 30.04 in 10.0 mi ESE 13.8 mph 23.0 mph 0.00 in   Overcast
9:53 AM 48.0 °F - 44.1 °F 86% 30.00 in 10.0 mi ESE 13.8 mph - N/A   Overcast
10:53 AM 50.0 °F - 45.0 °F 83% 29.96 in 10.0 mi SE 15.0 mph 25.3 mph N/A   Overcast
11:53 AM 52.0 °F - 46.9 °F 83% 29.92 in 10.0 mi SE 12.7 mph 20.7 mph N/A   Overcast
1:53 PM 53.6 °F - 48.2 °F 82% 29.85 in 10.0 mi SE 12.7 mph 20.7 mph N/A   Overcast
2:53 PM 55.0 °F - 50.0 °F 83% 29.82 in 10.0 mi SE 13.8 mph 24.2 mph N/A   Overcast
3:53 PM 55.0 °F - 50.0 °F 83% 29.82 in 10.0 mi SE 10.4 mph - N/A   Overcast
4:17 PM 53.6 °F - 51.8 °F 94% 29.85 in 2.0 mi South 11.5 mph - 0.02 in Rain Rain
4:27 PM 53.6 °F - 51.8 °F 94% 29.85 in 1.8 mi WSW 9.2 mph - 0.06 in Rain Rain
4:30 PM 53.6 °F - 51.8 °F 94% 29.85 in 2.0 mi WSW 8.1 mph - 0.06 in Rain Light Rain
4:33 PM 53.6 °F - 51.8 °F 94% 29.85 in 3.0 mi WSW 8.1 mph - 0.06 in Rain Light Rain
4:38 PM 53.6 °F - 51.8 °F 94% 29.85 in 6.0 mi SW 6.9 mph - 0.06 in Rain Light Rain
4:53 PM 53.1 °F - 52.0 °F 96% 29.86 in 8.0 mi South 3.5 mph - 0.06 in   Overcast
5:53 PM 52.0 °F - 52.0 °F 100% 29.84 in 10.0 mi SE 3.5 mph - 0.04 in   Overcast
6:53 PM 51.1 °F - 51.1 °F 100% 29.83 in 6.0 mi ESE 5.8 mph - N/A   Mostly Cloudy
7:07 PM 50.0 °F - 50.0 °F 100% 29.83 in 5.0 mi ESE 6.9 mph - N/A   Mostly Cloudy
7:53 PM 51.1 °F - 51.1 °F 100% 29.83 in 9.0 mi SE 6.9 mph - N/A   Mostly Cloudy
8:02 PM 48.2 °F - 48.2 °F 100% 29.83 in 9.0 mi SSE 5.8 mph - N/A   Scattered Clouds
8:53 PM 46.0 °F 42.5 °F 46.0 °F 100% 29.84 in 8.0 mi South 6.9 mph - 0.01 in   Scattered Clouds
9:14 PM 50.0 °F - 48.2 °F 94% 29.84 in 10.0 mi SSW 12.7 mph - N/A   Mostly Cloudy
9:30 PM 50.0 °F - 48.2 °F 94% 29.84 in 10.0 mi SSW 12.7 mph - N/A   Mostly Cloudy
9:53 PM 48.9 °F - 48.9 °F 100% 29.85 in 10.0 mi SSW 9.2 mph - N/A   Partly Cloudy
10:27 PM 50.0 °F - 48.2 °F 94% 29.83 in 10.0 mi SSW 9.2 mph - N/A   Overcast
10:53 PM 50.0 °F - 48.0 °F 93% 29.83 in 10.0 mi SSW 12.7 mph - N/A   Overcast
11:19 PM 50.0 °F - 48.2 °F 94% 29.83 in 10.0 mi SSW 11.5 mph - N/A   Overcast
11:53 PM 50.0 °F - 46.9 °F 89% 29.83 in 10.0 mi South 9.2 mph 18.4 mph N/A   Overcast